Weather History for Rockingham, NC

Change the Weather History Date:

Thursday, November 15, 2012

  Actual Average (KHFF) Record (KHFF)
Temperature  
Mean Temperature 40 °F -  
Max Temperature 44 °F 63 °F 79 °F (2011)
Min Temperature 37 °F 40 °F 25 °F (2014)
Degree Days  
Heating Degree Days 24    
Moisture  
Dew Point 39 °F    
Average Humidity 89    
Maximum Humidity 100    
Minimum Humidity 69    
Precipitation  
Precipitation 1.08 in - - ()
Sea Level Pressure  
Sea Level Pressure 30.28 in    
Wind  
Wind Speed 7 mph (North)    
Max Wind Speed 13 mph    
Max Gust Speed 18 mph    
Visibility 6 miles    
Events Rain    
Averages and records for this station are not official NWS values.
T = Trace of Precipitation, MM = Missing Value Source: NWS Daily Summary

Daily Weather History Graph

Daily Weather History Graph

Search for Another Location

Airport:

Trip Planner

Search our weather history database for the weather conditions in past years. The results will help you decide how hot, cold, wet, or windy it might be!

Date:

Astronomy

Nov. 15, 2012 Rise Set
Actual Time 6:53 AM EST 5:13 PM EST
Civil Twilight 6:26 AM EST 5:40 PM EST
Nautical Twilight 5:56 AM EST 6:10 PM EST
Astronomical Twilight 5:26 AM EST 6:40 PM EST
Moon 8:45 AM EST (11/15) 7:05 PM EST (11/15)
Length of Visible Light 11h 13m
Length of Day
10h 19m
Waxing Crescent, 5% of the Moon is Illuminated
Nov 15
Waxing Crescent
Nov 20
First Quarter
Nov 28
Full
Dec 6
Last Quarter
Dec 13
New

Hourly Weather History & Observations

Time (EST) Temp. Windchill Dew Point Humidity Pressure Visibility Wind Dir Wind Speed Gust Speed Precip Events Conditions
12:15 AM 43.5 °F 39.4 °F 37.4 °F 79% 30.33 in 10.0 mi NNE 6.9 mph - N/A   Mostly Cloudy
12:35 AM 43.5 °F 40.1 °F 37.4 °F 79% 30.32 in 10.0 mi NNE 5.8 mph - N/A   Light Drizzle
12:55 AM 43.7 °F 41.1 °F 37.2 °F 78% 30.32 in 10.0 mi NE 4.6 mph - N/A   Mostly Cloudy
1:15 AM 43.7 °F 39.7 °F 36.9 °F 77% 30.30 in 10.0 mi NE 6.9 mph - N/A   Mostly Cloudy
1:35 AM 43.9 °F 41.3 °F 36.3 °F 75% 30.30 in 10.0 mi NE 4.6 mph - N/A   Overcast
1:55 AM 44.1 °F 38.6 °F 35.6 °F 72% 30.30 in 10.0 mi NE 10.4 mph - N/A   Mostly Cloudy
2:15 AM 44.1 °F 40.1 °F 35.1 °F 71% 30.30 in 10.0 mi NE 6.9 mph - N/A   Overcast
2:35 AM 43.9 °F 38.8 °F 34.9 °F 71% 30.30 in 10.0 mi NE 9.2 mph - N/A   Overcast
2:55 AM 43.7 °F 40.3 °F 34.9 °F 71% 30.30 in 10.0 mi NE 5.8 mph - N/A   Overcast
3:15 AM 43.5 °F 39.4 °F 35.2 °F 73% 30.29 in 10.0 mi NE 6.9 mph - N/A Rain Light Rain
3:35 AM 42.8 °F 37.5 °F 36.0 °F 77% 30.29 in 10.0 mi NNE 9.2 mph - N/A   Mostly Cloudy
3:55 AM 43.0 °F 39.5 °F 35.4 °F 75% 30.28 in 10.0 mi NNE 5.8 mph - N/A   Mostly Cloudy
4:15 AM 43.2 °F 38.4 °F 35.1 °F 73% 30.28 in 10.0 mi NNE 8.1 mph - N/A   Overcast
4:35 AM 43.0 °F 38.8 °F 34.2 °F 71% 30.27 in 10.0 mi NNE 6.9 mph - N/A   Overcast
4:55 AM 43.0 °F 38.8 °F 33.6 °F 70% 30.27 in 10.0 mi North 6.9 mph - N/A   Overcast
5:15 AM 43.0 °F 39.5 °F 33.4 °F 69% 30.27 in 10.0 mi NNE 5.8 mph 16.1 mph N/A   Overcast
5:35 AM 43.0 °F 38.8 °F 33.8 °F 70% 30.29 in 10.0 mi North 6.9 mph - N/A   Mostly Cloudy
5:55 AM 42.8 °F 38.0 °F 34.0 °F 71% 30.30 in 10.0 mi NNW 8.1 mph - N/A   Mostly Cloudy
6:15 AM 42.4 °F 37.5 °F 33.8 °F 71% 30.30 in 10.0 mi NNW 8.1 mph - N/A   Mostly Cloudy
6:35 AM 42.4 °F 37.0 °F 33.8 °F 71% 30.31 in 10.0 mi NW 9.2 mph - N/A   Overcast
6:55 AM 41.2 °F 36.6 °F 35.1 °F 79% 30.32 in 10.0 mi NNW 6.9 mph 17.3 mph N/A Rain Rain
7:15 AM 39.9 °F - 36.5 °F 88% 30.36 in 7.0 mi Calm Calm - N/A   Mostly Cloudy
7:35 AM 39.2 °F 32.0 °F 36.7 °F 91% 30.30 in 1.8 mi NNE 11.5 mph 16.1 mph 0.12 in Rain Heavy Rain
7:55 AM 38.5 °F 31.1 °F 37.0 °F 95% 30.30 in 1.0 mi NE 11.5 mph 17.3 mph 0.24 in Rain Heavy Rain
8:15 AM 38.3 °F 31.9 °F 37.4 °F 97% 30.29 in 3.0 mi NE 9.2 mph - 0.06 in Rain Rain
8:35 AM 38.3 °F 31.4 °F 37.4 °F 97% 30.29 in 3.0 mi NNE 10.4 mph - 0.08 in Rain Rain
8:55 AM 38.5 °F 33.4 °F 37.6 °F 97% 30.31 in 1.5 mi NE 6.9 mph - 0.15 in Rain Rain
9:15 AM 38.5 °F 36.1 °F 37.8 °F 97% 30.31 in 2.0 mi ENE 3.5 mph - 0.07 in Rain Rain
9:35 AM 38.5 °F 36.1 °F 37.9 °F 98% 30.32 in 2.0 mi ENE 3.5 mph - 0.12 in Rain Rain
9:55 AM 38.5 °F 35.0 °F 38.3 °F 99% 30.32 in 1.2 mi NNE 4.6 mph - 0.22 in Rain Heavy Rain
10:15 AM 38.5 °F 35.0 °F 38.1 °F 99% 30.33 in 1.8 mi NNE 4.6 mph - 0.08 in Rain Rain
10:35 AM 38.5 °F 33.4 °F 38.3 °F 99% 30.32 in 1.5 mi NNE 6.9 mph - 0.17 in Rain Heavy Rain
10:55 AM 38.3 °F 31.9 °F 38.1 °F 99% 30.30 in 1.8 mi NNE 9.2 mph - 0.24 in Rain Rain
11:15 AM 38.3 °F 31.9 °F 37.9 °F 99% 30.29 in 1.8 mi NNE 9.2 mph - 0.07 in Rain Rain
11:35 AM 37.9 °F 30.0 °F 37.8 °F 99% 30.27 in 2.0 mi NE 12.7 mph - 0.13 in Rain Rain
11:55 AM 38.3 °F 31.9 °F 37.9 °F 99% 30.26 in 1.8 mi North 9.2 mph 16.1 mph 0.20 in Rain Rain
12:15 PM 38.3 °F 33.2 °F 38.3 °F 100% 30.24 in 2.5 mi NE 6.9 mph 18.4 mph 0.03 in Rain Light Rain
12:35 PM 38.8 °F 33.8 °F 38.7 °F 99% 30.26 in 4.0 mi NW 6.9 mph - 0.03 in   Overcast
12:55 PM 39.6 °F 36.3 °F 39.4 °F 99% 30.26 in 4.0 mi NW 4.6 mph - 0.03 in   Overcast
1:15 PM 40.1 °F 36.1 °F 39.9 °F 99% 30.26 in 4.0 mi NNW 5.8 mph - N/A   Overcast
1:35 PM 40.3 °F 36.3 °F 39.9 °F 99% 30.26 in 4.0 mi NW 5.8 mph - N/A   Overcast
1:55 PM 40.8 °F 36.2 °F 40.3 °F 98% 30.25 in 5.0 mi North 6.9 mph - N/A   Overcast
2:15 PM 41.2 °F 37.3 °F 40.6 °F 98% 30.25 in 5.0 mi North 5.8 mph - N/A   Overcast
2:35 PM 41.7 °F 36.7 °F 41.0 °F 97% 30.24 in 3.0 mi North 8.1 mph - N/A   Overcast
2:55 PM 41.9 °F 38.2 °F 41.4 °F 98% 30.24 in 3.0 mi NNW 5.8 mph - N/A   Overcast
3:15 PM 42.1 °F 38.4 °F 41.4 °F 97% 30.25 in 5.0 mi North 5.8 mph - N/A   Overcast
3:35 PM 42.3 °F 37.9 °F 41.7 °F 98% 30.25 in 5.0 mi North 6.9 mph - N/A   Overcast
3:55 PM 42.4 °F 38.8 °F 41.7 °F 97% 30.25 in 5.0 mi North 5.8 mph - N/A   Overcast
4:15 PM 42.8 °F 38.6 °F 41.9 °F 97% 30.25 in 4.0 mi NNW 6.9 mph - N/A   Overcast
4:35 PM 42.8 °F 40.1 °F 41.9 °F 97% 30.25 in 4.0 mi NNW 4.6 mph - N/A   Overcast
4:55 PM 42.8 °F 40.1 °F 41.9 °F 97% 30.25 in 5.0 mi North 4.6 mph - N/A   Overcast
5:15 PM 42.8 °F 40.1 °F 41.9 °F 97% 30.25 in 7.0 mi North 4.6 mph - N/A   Overcast
5:35 PM 42.8 °F 38.6 °F 41.7 °F 96% 30.25 in 7.0 mi North 6.9 mph - N/A   Overcast
5:55 PM 42.8 °F 39.3 °F 41.4 °F 95% 30.25 in 7.0 mi North 5.8 mph - N/A   Overcast
6:35 PM 42.8 °F 38.6 °F 41.2 °F 94% 30.25 in 7.0 mi North 6.9 mph - N/A   Overcast
6:55 PM 42.8 °F 39.3 °F 41.4 °F 95% 30.26 in 7.0 mi NNW 5.8 mph - N/A   Overcast
7:15 PM 43.0 °F 39.5 °F 41.5 °F 95% 30.27 in 7.0 mi North 5.8 mph - N/A   Overcast
7:35 PM 43.0 °F 38.8 °F 41.4 °F 94% 30.27 in 10.0 mi North 6.9 mph - N/A   Overcast
7:55 PM 43.3 °F 39.2 °F 41.4 °F 93% 30.27 in 10.0 mi North 6.9 mph - N/A   Overcast
8:35 PM 43.3 °F 39.2 °F 41.4 °F 93% 30.27 in 10.0 mi North 6.9 mph - N/A   Overcast
8:55 PM 43.5 °F 40.1 °F 41.2 °F 91% 30.27 in 10.0 mi NNE 5.8 mph - N/A   Overcast
9:15 PM 43.7 °F 40.3 °F 41.4 °F 91% 30.26 in 10.0 mi North 5.8 mph - N/A   Overcast
9:55 PM 44.1 °F 41.5 °F 41.9 °F 92% 30.26 in 10.0 mi NNE 4.6 mph - N/A   Overcast
10:15 PM 44.2 °F 41.0 °F 41.9 °F 91% 30.26 in 10.0 mi North 5.8 mph - N/A   Overcast
10:35 PM 44.6 °F 40.7 °F 41.9 °F 90% 30.27 in 10.0 mi North 6.9 mph - N/A   Overcast
10:55 PM 44.6 °F 41.4 °F 41.9 °F 90% 30.26 in 10.0 mi North 5.8 mph - N/A   Overcast
11:15 PM 44.6 °F 41.4 °F 42.1 °F 91% 30.27 in 7.0 mi NNE 5.8 mph - N/A   Overcast
11:35 PM 44.2 °F 42.7 °F 42.6 °F 94% 30.27 in 4.0 mi North 3.5 mph - N/A   Overcast
11:55 PM 44.1 °F 40.8 °F 43.0 °F 96% 30.26 in 3.0 mi North 5.8 mph - N/A   Overcast